Language selection

Weather shortcuts

Atlantic - Labrador: Past 24 Hour Conditions

 

Mary's Harbour

05:30 PM NDT 18 July 2024
Disclaimer

This table is a summary of hourly weather conditions for the past 24 hours.
Please note that these observations might not always be representative of weather conditions over their associated marine area.

Date / Time
(NDT)
Wind(knots) Conditions Visibility(km) Pressure(kPa) Air tempC) Relative humidity(%) Dew pointC)
18 July 2024
17:30 SE 3 Cloudy 16 100.5 15 97 14
16:30 SSE 5 Cloudy 13 100.6 15 98 14
15:30 SSE 3 Light Rain 8 100.6 14 98 14
14:30 SE 5 Cloudy 15 100.6 14 99 13
13:30 E 4 Cloudy 15 100.7 13 99 13
12:30 SE 6 Light Rain 11 100.8 12 100 12
11:30 SE 5 Light Rain 10 100.8 12 100 12
10:30 ESE 4 Cloudy 15 100.8 12 100 12
9:30 E 3 Mist 3 100.9 12 100 12
8:30 SE 3 Mist 3 100.9 11 100 11
7:30 E 3 Cloudy 16 100.9 11 100 11
6:30 ENE 2 Mist 8 100.9 11 100 11
5:30 calm Heavy Rain 2 100.8 11 100 11
4:30 E 2 Light Rain 3 100.8 11 100 11
3:30 ENE 2 Mist 2 100.8 11 100 11
2:30 NNE 3 Light Rain 4 100.9 11 99 11
1:30 NNE 6 Mist 4 100.9 11 99 11
0:30 NE 4 Mist 4 100.9 11 98 11
17 July 2024
23:30 N 4 Mist 5 100.8 11 98 11
22:30 NNE 5 Mist 8 100.8 11 97 11
21:30 N 3 Cloudy 16 100.8 11 96 11
20:30 NNE 6 Mist 5 100.8 11 97 11
19:30 NNE 6 Cloudy 16 100.7 12 94 11
18:30 NE 8 Cloudy 16 100.7 13 91 11
17:30 NE 8 Sunny 16 100.7 15 84 12

Zoom-in to make a selection

Map of Atlantic - Labrador marine weather areas Kangiqsualujjuaq Airport Cape Kakkiviak Cape Kiglapait Cartwright Airport CFB Goose Bay Hopedale Mary's Harbour Nain Airport Makkovik Airport Saglek Tukialik Bay
Legend:
buoy Buoy
land station Land Station

Atlantic - Labrador Area

Another Region

Features

New Predicting and Alerting Coastal Flooding Program

Find out about coastal flooding coverage, forecasts and warnings in your region

Date modified: